Weather in Kurkino

Russia / Tula Oblast     53°25′45″N   38°39′44″E
temp.,
°C
wind,
m/s
gust,
m/s
humid.,
%
clouds,
%
prec.,
mm/h
press.,
hPa
HPBL,
m
25 february, thu
thu2500:00−13ssw5994100 0.4 1032326
03:00−12ssw51094100 0.7 1029299
06:00−10sw61095100 0.3 1025309
09:00−4wsw81495100 1.3 1021644
12:00+1wsw816100100 0.4 1017534
15:00+2w715100100 0.6 1016380
18:00+2w512100100 0.0 1016285
21:00+2wnw512100100 0.6 1016274
26 february, fri
fri2600:00+2wnw510100100 0.1 1016263
03:00+2w513100100 0.6 1016303
06:00+2w612100100 0.3 1014286
09:00+2w713100100 0.5 1013338
12:00+2wsw714100100 0.0 1011432
15:00+2w715100100 0.0 1010545
18:00+2w71699100 0.1 1007492
21:00+2w71593100 0.1 1008638
27 february, sat
sat2700:00+1w61393100 0.0 1006635
03:000w6139089 0.0 1006479
06:00+1w61297100 0.1 1004550
09:00+1wnw71298100 0.2 1004643
12:00+1wnw61298100 0.1 1003593
15:00+1nw7139999 0.1 1005729
18:00−2n61289100 0.1 1007677
21:00−7n5139376 0.2 1010482
28 february, sun
sun2800:00−9nnw5109487 0.0 1012361
03:00−11nnw5109491 0.1 1015353
06:00−12nnw4109570 0.0 1015280
09:00−11nnw4109345 0.0 1017395
12:00−9nnw489179 0.0 1018471
15:00−7nnw589189 0.1 1019613
18:00−6n5991100 0.1 1020642
21:00−6n3896100 0.2 1023288
1 march, mon
mon100:00−8n2396100 0.2 102468
03:00−9nnw239798 0.3 102631
06:00−8nnw2396100 0.1 102735
09:00−8wnw359571 0.1 102792
12:00−4w479348 0.0 1027415
15:00−3w5109074 0.0 1026476
18:00−3w6129398 0.0 1023482
21:00−1w6139299 0.1 1022569